Historyczne dane pomiarowe

Dodano dane terminowe – wersja testowa.

Dane z okresu 1951-2019

Wersja bazy: 1.34 [2019-03-16, lista zmian], aktualizacja planowana na 2019-04-15

Dane meteo z obszaru Polski uzyskane na podstawie danych udostępnionych przez Instytut Meteorologii i Gospodarki Wodnej – Państwowy Instytut Badawczy.

 

Wybierz Datę:    

       

TemperaturaWilgotnośćWiatrCiśnienieOpadyŚniegCzas trwania zjawisk
 Stacja t tx tn tng RH VA  wxwx mslp ppp RRR   cm mm wxwxwxwxwxwxwx
1956-11-09-11.8 -2.7-15.9- 90.5- 3.7 1.0---- 0.0-- 1---------
1956-11-08 -8.6 -3.1-11.1- 82.8- 6.7 2.3---- 0.0-- 1---------
1956-11-07 -2.4 -0.3 -3.6- 93.8- 8.0 4.0---- 0.0-- 1---------
1956-11-06 -0.6 1.4 -1.8- 95.5- 7.7 2.0---- 3.0-- 1---------
1956-11-05 -1.3 1.3 -7.6- 95.8- 6.0 3.0---- 5.0------------
1956-11-04 -1.2 3.3 -9.3- 93.0- 2.0 1.0---- 2.1------------
1956-11-03 -1.3 1.4 -2.6- 93.8- 8.0 2.3---- 0.0------------
1956-11-02 0.5 5.9 -6.8- 88.8- 6.7 1.0---- 0.0------------
1956-11-01 -4.2 5.7-13.1- 86.8- 0.0 0.3---- 0.0------------
1956-10-31 -5.4 4.9 -7.8- 90.3- 4.0 2.7---- 0.0------------
1956-10-30 4.2 5.9 2.4- 90.3- 8.0 0.0---- 0.0------------
1956-10-29 4.4 7.7 2.4- 93.3- 8.0 2.0---- 1.9------------
1956-10-28 9.6 15.5 7.1- 84.3- 4.7 1.0---- 4.0------------
1956-10-27 8.1 12.0 -0.4- 90.8- 7.0 1.0---- 0.0------------
1956-10-26 7.8 15.2 3.6- 81.8- 3.0 1.7---- 0.0------------
1956-10-25 10.1 15.8 2.9- 80.3- 2.7 2.0---- 0.0------------
1956-10-24 6.3 12.2 2.9- 90.5- 5.3 0.7---- 0.0------------
1956-10-23 8.9 16.2 2.7- 93.5- 4.0 1.0---- 0.0------------
1956-10-22 10.6 16.5 4.6- 88.3- 3.0 1.0---- 0.0------------
1956-10-21 10.0 14.0 7.1- 80.3- 6.3 0.0---- 0.0------------
1956-10-20 10.0 11.6 7.7- 86.0- 8.0 1.3---- 1.2------------
1956-10-19 8.6 11.5 2.0- 74.0- 8.0 1.0---- 0.0------------
1956-10-18 7.4 12.2 -1.8- 67.0- 4.7 2.0---- 0.0------------
1956-10-17 1.5 13.4 -6.2- 81.8- 0.0 0.0---- 0.0------------
1956-10-16 0.4 9.1 -5.8- 84.8- 1.3 1.0---- 0.0------------
1956-10-15 -0.6 9.7 -6.0- 83.0- 1.3 1.0---- 0.0------------
1956-10-14 2.9 9.9 -1.8- 85.8- 4.0 3.0---- 1.5------------
1956-10-13 5.6 7.4 1.8- 80.5- 8.0 2.7---- 1.2------------
1956-10-12 4.6 7.4 -1.1- 76.0- 5.3 2.0---- 0.0------------
1956-10-11 0.8 7.4 -3.3- 83.8- 3.7 1.0---- 0.0------------
1956-10-10 3.7 6.1 1.2- 79.8- 6.3 3.0---- 0.0------------
1956-10-09 2.8 9.4 -5.0- 80.0- 1.3 1.0---- 0.0------------
1956-10-08 1.0 11.0 -3.4- 96.5- 1.3 1.0---- 0.0------------
1956-10-07 3.2 8.4 0.8- 86.8- 5.0 2.0---- 0.0------------
1956-10-06 7.4 13.5 4.6- 94.8- 8.0 3.0---- 37.5------------
1956-10-05 9.8 13.5 8.6- 89.0- 4.7 1.0---- 0.0------------
1956-10-04 11.4 17.5 9.7- 91.8- 8.0 2.3---- 1.4------------
1956-10-03 16.2 22.2 10.6- 85.5- 3.0 2.7---- 0.0------------
1956-10-02 15.3 22.5 7.1- 80.8- 0.0 1.7---- 0.0------------
1956-10-01 14.6 21.6 5.5- 79.0- 0.7 1.0---- 0.0------------
1956-09-30 14.6 22.0 7.1- 83.5- 2.0 0.3---- 0.0------------
1956-09-29 12.8 18.0 11.6- 84.3- 2.3 1.3---- 0.0------------
1956-09-28 12.2 16.0 10.6- 89.5- 6.7 1.3---- 3.8------------
1956-09-27 14.8 21.0 5.7- 63.8- 4.0 1.3---- 2.4------------
1956-09-26 12.2 18.5 2.2- 59.3- 0.0 1.3---- 0.0------------
1956-09-25 10.1 17.6 -1.3- 81.0- 2.7 1.0---- 0.0------------
1956-09-24 7.5 17.0 3.0- 83.0- 0.0 1.0---- 0.0------------
1956-09-23 10.0 18.0 -0.6- 93.5- 0.0 1.3---- 0.0------------
1956-09-22 7.6 20.4 -0.8- 81.5- 0.0 0.3---- 0.0------------
1956-09-21 8.4 17.5 0.2- 73.3- 0.0 1.0---- 0.0------------
1956-09-20 9.0 15.4 -2.8- 71.0- 3.7 1.0---- 0.0------------
1956-09-19 5.0 14.5 -3.0- 81.5- 2.0 0.3---- 0.0------------
1956-09-18 4.9 9.4 2.6- 85.0- 5.3 2.3---- 0.0------------
1956-09-17 6.8 12.5 5.5- 91.8- 8.0 1.3---- 2.6------------
1956-09-16 12.5 17.5 5.1- 80.8- 6.3 1.0---- 0.0------------
1956-09-15 9.7 15.8 2.2- 83.0- 6.0 1.3---- 0.0------------
1956-09-14 8.3 10.5 2.8- 92.5- 8.0 3.0---- 0.0------------
1956-09-13 5.8 10.5 3.0- 89.5- 6.7 1.3---- 6.2------------
1956-09-12 10.8 15.0 8.9- 88.3- 8.0 2.0---- 11.5------------
1956-09-11 15.8 20.6 9.6- 79.0- 7.0 2.3---- 2.0------------
267.7 ms

 

Źródłem pochodzenia danych jest Instytut Meteorologii i Gospodarki Wodnej – Państwowy Instytut Badawczy. Dane Instytutu Meteorologii i Gospodarki Wodnej – Państwowego Instytutu Badawczego zostały przetworzone.

Dane źródłowe można odnaleźć na stronie https://dane.imgw.pl